Overview Statistics Trail Chart Weather Telemetry Raw packets
 

This is the latest recevied weather packets stored in our database for station/object KCDH. If no packets are shown the sender has not sent any weather packets the latest 10 day(s).

<< 50 51 52 53 54 55 56 >>
Time Temp. Humidity Pressure Rain* Wind** Luminosity Snow
1787801605 21.67° C 94% 1015.9 hPa - - - -
1787801010 21.67° C 94% 1015.9 hPa - - - -
1787800407 21.67° C 94% 1016.9 hPa - - - -
1787799805 21.67° C 94% 1016.9 hPa - - - -
1787799208 - - 1015.6 hPa - - - -
1787798607 - - 1015.6 hPa - - - -
1787798008 22.78° C 94% 1014.9 hPa - - - -
1787797408 22.78° C 94% 1014.9 hPa - - - -
1787796807 27.78° C 58% 1015.2 hPa - - - -
1787796205 27.78° C 58% 1015.2 hPa - - - -
1787795606 30.56° C 55% 1013.5 hPa - - - -
1787795005 30.56° C 55% 1013.5 hPa - - - -
1787794406 30.56° C 58% 1011.2 hPa - - - -
1787793804 30.56° C 58% 1011.2 hPa - - - -
1787793203 30.56° C 58% 1011.2 hPa - - - -
1787792607 30.56° C 58% 1011.2 hPa - - - -
1787792009 30.56° C 58% 1011.5 hPa - - - -
1787791405 30.56° C 58% 1011.5 hPa - - - -
1787790808 31.67° C 59% 1011.2 hPa - - - -
1787790206 31.67° C 59% 1011.2 hPa - - - -
1787789610 35° C 44% 1010.5 hPa - - - -
1787789028 35° C 44% 1010.5 hPa - - - -
1787788405 35.56° C 41% 1010.5 hPa - - - -
1787787808 35.56° C 41% 1010.5 hPa - - - -
1787787210 35.56° C 39% 1010.8 hPa - - - -

* Rain since midnight (hover to see other rain measurements)
** Current wind speed in m/s (hover to see current wind gust speed)